Location: Alexandria
(38.8050°N, 77.0470°W)
Time: 05:08:35
(UTC-05:00)

Tiangong 2 - Pass Details

Date: 11 February 2018
Orbit: 384 x 389 km, 42.8° (Epoch: 23 February)

Event Time Altitude Azimuth Distance (km) Brightness Sun altitude
Rises 19:07:03 0° 247° (WSW) 2,255 6.3 -17.2°
Reaches altitude 10° 19:09:07 10° 247° (WSW) 1,403 5.0 -17.6°
Maximum altitude 19:12:17 86° 158° (SSE) 388 0.9 -18.2°
Enters shadow 19:12:33 72° 80° (E) 405 0.9 -18.3°
